Home > Weather > Fredericton > Past weeks

Flag for Canada Past Weather in Fredericton, New Brunswick, Canada — Yesterday and Last 2 Weeks

Now
68 °F

Fog.


Feels Like: 68 °F
Forecast: 61 / 79 °F
Wind: No wind

Location: Fredericton

Current Time: Jul 29, 2016 at 11:10:20 PM

Latest Report: Jul 29, 2016 at 10:03 PM


Visibility: 5 mi

Pressure: 29.88 "Hg

Humidity: 94%

Dew Point: 66 °F

Location of FrederictonLocation

Past Weather in Fredericton — Graph

°F

Fredericton Temperature Yesterday

Maximum temperature yesterday: 84 °F (at 3:00 PM)
Minimum temperature yesterday: 64 °F (at 5:00 AM)
Average temperature yesterday: 71 °F

High & Low Weather Summary for the Past Weeks

 TemperatureHumidityPressure
High90 °F (Jul 22, 5:00 PM)100% (Jul 19, 1:00 AM)30.14 "Hg (Jul 19, 1:00 AM)
Low48 °F (Jul 20, 4:00 AM)30% (Jul 20, 6:00 PM)29.56 "Hg (Jul 22, 6:00 PM)
Average70 °F74%29.85 "Hg
* Reported Jul 14 10:00 PM — Jul 29 10:03 PM, Fredericton, Weather by CustomWeather, © 2016

Note: Actual official high and low records may vary slightly from our data, if they occured in-between our weather recording intervals... More about our weather records

Advertising

Fredericton Weather History for the Previous 24 Hours

Scroll right to see more
 ConditionsComfort  
Time TempWeatherWind HumidityBarometerVisibility
10:03 PM
Fri, Jul 29
68 °FFog.No wind94%29.88 "Hg5 mi
9:00 PM70 °FScattered clouds.2 mph94%29.86 "Hg9 mi
8:00 PM75 °FOvercast.2 mph78%29.86 "Hg9 mi
7:00 PM75 °FScattered clouds.5 mph74%29.85 "Hg9 mi
6:00 PM77 °FPartly sunny.5 mph69%29.85 "Hg9 mi
5:00 PM77 °FPassing clouds.3 mph74%29.86 "Hg9 mi
4:00 PM73 °FBroken clouds.2 mph78%29.87 "Hg9 mi
3:00 PM73 °FBroken clouds.3 mph78%29.89 "Hg9 mi
2:00 PM72 °FPartly sunny.2 mph83%29.90 "Hg9 mi
1:00 PM72 °FOvercast.2 mph83%29.89 "Hg9 mi
12:00 PM72 °FOvercast.3 mph83%29.90 "Hg9 mi
11:46 AM70 °FPartly sunny.No wind83%29.90 "Hg9 mi
11:00 AM70 °FMore clouds than sun.3 mph88%29.90 "Hg9 mi
10:46 AM70 °FMore clouds than sun.5 mph83%29.90 "Hg9 mi
10:00 AM68 °FMostly cloudy.6 mph94%29.90 "Hg9 mi
9:52 AM68 °FMostly cloudy.5 mph94%29.90 "Hg9 mi
9:00 AM66 °FLow clouds.2 mph100%29.90 "Hg7 mi
8:00 AM66 °FLow clouds.5 mph94%29.90 "Hg7 mi
7:00 AM66 °FMostly cloudy.5 mph94%29.89 "Hg7 mi
6:54 AM66 °FFog.6 mph94%29.88 "Hg6 mi
6:00 AM66 °FFog.7 mph94%29.88 "Hg1 mi
5:00 AM64 °FFog.2 mph100%29.87 "Hg1 mi
4:00 AM64 °FFog.2 mph100%29.88 "Hg1 mi
3:00 AM66 °FLight rain. Overcast.2 mph94%29.88 "Hg9 mi
2:52 AM66 °FLight rain. Fog.No wind94%29.88 "Hg6 mi
2:00 AM66 °FOvercast.5 mph94%29.88 "Hg9 mi
1:51 AM66 °FFog.2 mph94%29.88 "Hg6 mi
1:00 AM66 °FOvercast.2 mph94%29.87 "Hg9 mi
12:00 AM66 °FMostly cloudy.3 mph100%29.87 "Hg9 mi
11:00 PM
Thu, Jul 28
68 °FLight rain. Overcast.7 mph94%29.88 "Hg9 mi
Weather by CustomWeather, © 2016

See weather overviewHow to use our weather pages